COSMOS 1753

Satellite information

Favourite Embed

Satellite Type and Status

PAYLOADIN ORBIT

Key statistics

Satellite COSMOS 1753 at a glance.

Uptime

14336

Days in orbit

Revolutions

≈ 12.5

Per day

Orbit

LEO

Low Earth Orbit

Inclination

74.0

Latest

Satellite identification and parameters

Extended collection of information and parameters for COSMOS 1753.

Object identification

Identified? True

Debris? False

Object name: COSMOS 1753

International designator: 1986-042F

Object number (NORAD): 16763

Object ID (CCSDS): 16763

Country: COMMONWEALTH OF INDEPENDENT STATES (CIS)

Current information (Y/N): Y

RCS size: MEDIUM

Orbital parameters

Period: 115.301 minutes

Inclination: 74.0204 deg

SMA: 7847.238 km

Apoapsis: 1477.358 km

Periapsis: 1460.848 km

RAAN: 21.2973 deg

Eccentricy: 0.00105198

Argument of periapsis: 304.0379 deg

Mean anomaly: 230.8327 deg

Mean motion: 12.48899627 rev/day

Mean motion (dot): -0.00000019 rev/day2

B* drag term: -0.000020814757 1/REarth

Two-line elements (TLE)

Creation date: Sept. 4, 2025, 10:13 a.m.

Reference frame: TEME

Reference center: EARTH

Epoch: Sept. 4, 2025, 4:09 a.m. UTC

TLE line 0: 0 COSMOS 1753

TLE line 1: 1 16763U 86042F 25247.17323147 -.00000019 00000-0 -20815-4 0 9993

TLE line 2: 2 16763 74.0204 21.2973 0010520 304.0379 230.8327 12.48899627789375

Live tracking on map

Real-time ground track for satellite COSMOS 1753.

In-orbit conjunctions

A list of the most updated potential collisions computed for object COSMOS 1753.

Target Orbit TCA Probability of collision Miss distance Type
H-1 R/B SSO 2025-07-24 08:14:07 0.001907597 33.0 (m) ROCKET BODY

Associated space launch

Military communications satellites

COSMOS 1753 was lifted into orbit during the mission ‘Kosmos-3M | Strela-1M 305-312’, on board a Kosmos-3M space rocket.

The launch took place on June 6, 1986, 3:57 a.m. from 132/1 (132L).

For more information about the launch, click the button.

Launch to space Kosmos-3M | Strela-1M 305-312
Kosmos-3M | Strela-1M 305-312

Agency: N/A

Status: Launch Successful

Launch date: June 6, 1986, 3:57 a.m. UTC

Rocket: Kosmos-3M

Launch pad: 132/1 (132L)

Location: Plesetsk Cosmodrome, Russian Federation

...

Latest news about this satellite

There are no fresh news available about this satellite. Check back as we update our databases every day.


Newsletter sign-up

Weekly statistics, charts and insights to help you stay on top of the space industry.